[[{"header":{"parameterUnit":"m.s-1","parameterCategory":1,"la1":30.2991,"la2":30.254,"lo1":-89.0895,"lo2":-89.0444,"dy":0.0017,"dx":0.0017,"nx":28,"ny":28,"refTime":"2024-03-05T09:00:00:Z","depth":0,"parameterNumber":2,"parameterNumberName":"U-component_of_WINDS"},"data":[0,0,0,0,0,0,0,0,0,0,0,0,0,0,0,0,0,0,0,0,0,0,0,0,0,0,0,0,0,0,0,0,0,0,0,0,0,0,0,0,0,0,0,0,0,0,0,0,0,0,0,0,0,0,0,0,0,0,0.1982,0.1984,0,0.2157,0.2159,0.2161,0.2187,0.2186,0.2184,0.2182,0.2367,0.2373,0.238,0,0,0,0,0,0,0,0,0,0,0,0,0,0.1676,0.1681,0.1982,0.1984,0.1986,0.2157,0.2159,0.2161,0.2187,0.2185,0.2184,0.2182,0.2365,0.2373,0.238,0,0,0,0,0,0,0,0,0,0,0,0,0,0.1826,0.1683,0.1981,0.2019,0.2025,0.2156,0.2159,0.2162,0.2188,0.2185,0.2183,0.2181,0.2363,0.2372,0.2381,0.2489,0,0,0.2411,0.2415,0,0,0,0,0,0,0,0,0.1817,0.1837,0.2012,0.2017,0.2023,0.2148,0.2119,0.2272,0.2188,0.2126,0.2182,0.218,0.2296,0.2311,0.235,0.2498,0.2505,0.2412,0.2418,0.2422,0.2424,0,0,0,0,0,0,0,0.1807,0.1829,0.2051,0.2014,0.2021,0.203,0.2048,0.2148,0.2223,0.2131,0.2134,0.2154,0.2299,0.234,0.2354,0.2508,0.2411,0.242,0.2426,0.243,0.2755,0.2758,0,0,0,0,0,0,0.1788,0.1821,0.2046,0.2056,0.1912,0.2037,0.2058,0.211,0.2222,0.2236,0.2155,0.2154,0.2325,0.2343,0.2361,0.2495,0.2422,0.2431,0.2436,0.2752,0.2755,0.2759,0,0,0,0,0,0,0.1782,0.1808,0.2039,0.1939,0.1969,0.2045,0.2103,0.2115,0.2156,0.224,0.2254,0.2183,0.2324,0.2347,0.2457,0.2502,0.2435,0.2444,0.2749,0.2753,0.2757,0.2763,0,0,0,0,0,0,0.1773,0.1806,0.1846,0.194,0.1974,0.213,0.2106,0.212,0.2172,0.2172,0.227,0.2284,0.2324,0.2442,0.2466,0.2514,0.2451,0.2745,0.2751,0.2756,0.2759,0.2767,0.2773,0,0,0,0,0,0.1762,0.1841,0.1848,0.1875,0.2026,0.2132,0.2152,0.2195,0.2175,0.2217,0.2271,0.2281,0.2493,0.2453,0.2481,0.2531,0.2742,0.2749,0.2755,0.2756,0.2765,0.2773,0,0,0,0,0,0,0.1752,0.1854,0.1862,0.1974,0.2044,0.2136,0.219,0.2203,0.2282,0.2279,0.233,0.2352,0.2459,0.2507,0.2461,0.2642,0.2616,0.2628,0.2607,0.2617,0.2624,0.2611,0.2459,0,0,0,0,0,0.1763,0.1839,0.1925,0.2015,0.205,0.2114,0.2162,0.2189,0.2264,0.2294,0.2357,0.2431,0.2514,0.2568,0.265,0.2766,0.2789,0.2815,0.2822,0.2827,0.2837,0.2904,0.2917,0.278,0.278,0.278,0,0,0.1786,0.1851,0.1896,0.2015,0.2072,0.2152,0.2139,0.2223,0.2283,0.2308,0.2415,0.2463,0.255,0.2663,0.2716,0.2706,0.288,0.2836,0.2839,0.2847,0.2912,0.2925,0.2936,0.2784,0.2783,0.2783,0,0,0.1869,0.1925,0.2007,0.2064,0.2151,0.2193,0.2213,0.2304,0.2336,0.2444,0.2464,0.2538,0.268,0.2741,0.2791,0.2898,0.291,0.2923,0.2961,0.3025,0.3036,0.3046,0.3085,0.3098,0.2933,0.2933,0.2933,0,0.1887,0.2005,0.2048,0.2132,0.2184,0.2208,0.2293,0.2348,0.2457,0.2493,0.248,0.2659,0.2719,0.2848,0.2874,0.2913,0.2939,0.2912,0.3031,0.3041,0.3051,0.3089,0.3103,0.2934,0.2934,0.2934,0.2934,0,0.2024,0.2107,0.2163,0.2266,0.2325,0.2409,0.2466,0.2521,0.2543,0.2587,0.2698,0.2771,0.2868,0.29,0.2923,0.3033,0.3024,0.302,0.2995,0.3064,0.3101,0.3115,0.2936,0.2935,0.2935,0.2935,0,0,0.2105,0.2231,0.2251,0.2299,0.2396,0.2462,0.2548,0.2641,0.2688,0.2763,0.2837,0.2958,0.2955,0.3011,0.3041,0.3098,0.3179,0.3087,0.309,0.3102,0.3306,0.3308,0.3324,0.3188,0.3191,0.3193,0.3299,0,0.22,0.2351,0.2393,0.2522,0.2599,0.2624,0.27,0.2769,0.2813,0.2887,0.2937,0.3021,0.301,0.3045,0.3101,0.3157,0.3221,0.315,0.3259,0.3262,0.3236,0.3343,0.3346,0.3442,0.3313,0.3316,0.3318,0,0.233,0.2406,0.2543,0.2631,0.2665,0.2732,0.2821,0.2891,0.2971,0.2999,0.3062,0.3088,0.3181,0.3151,0.328,0.3231,0.3278,0.3313,0.3317,0.3329,0.3294,0.3359,0.3474,0.3488,0.334,0.3338,0.3337,0,0.2376,0.2513,0.2612,0.2653,0.2758,0.2804,0.2851,0.2928,0.2982,0.3061,0.3097,0.3186,0.3236,0.3305,0.3355,0.3328,0.3481,0.3454,0.3508,0.3507,0.3539,0.3536,0.3664,0.3569,0.3569,0.3569,0.3568,0,0.2477,0.256,0.2635,0.2696,0.279,0.2838,0.293,0.2978,0.3047,0.312,0.3147,0.3215,0.3277,0.3354,0.3393,0.3495,0.3517,0.3544,0.3554,0.3542,0.3538,0.3574,0.3568,0.3573,0.3572,0.3571,0.357,0,0.2544,0.2597,0.2708,0.2798,0.2823,0.2889,0.2968,0.3029,0.3075,0.3166,0.3191,0.3263,0.3355,0.3411,0.3528,0.3555,0.3667,0.3675,0.364,0.3644,0.3695,0.3689,0.385,0.3874,0.3762,0.3763,0.3764,0,0.2605,0.2669,0.2767,0.2817,0.2863,0.2943,0.2998,0.3048,0.3105,0.3201,0.3252,0.3345,0.3422,0.3568,0.3632,0.3723,0.3732,0.3782,0.3746,0.3732,0.3734,0.3729,0.3736,0.3788,0.3789,0.379,0.3791,0,0.2709,0.2732,0.2808,0.2895,0.2959,0.303,0.3101,0.3141,0.3204,0.3266,0.336,0.3419,0.3539,0.3632,0.3727,0.3778,0.3796,0.3802,0.3819,0.3807,0.3784,0.3798,0.3656,0.3798,0.3797,0.3796,0.3796,0.3796,0.2775,0.2833,0.2911,0.2996,0.3055,0.312,0.3183,0.3236,0.3314,0.3413,0.3439,0.3538,0.3618,0.3748,0.3801,0.388,0.3872,0.3897,0.3904,0.3909,0.391,0.3772,0.3898,0.3897,0.3897,0.3897,0.3897,0,0.288,0.2931,0.3009,0.3106,0.3174,0.3183,0.3263,0.3319,0.3404,0.3477,0.3552,0.3661,0.3751,0.3822,0.3916,0.3966,0.3976,0.3989,0.3986,0.3997,0.3911,0.3887,0.3979,0.3979,0.3978,0.3978,0.3978,0.3978,0.2942,0.3041,0.3074,0.3203,0.3255,0.335,0.3395,0.3456,0.3514,0.3633,0.3708,0.3753,0.3826,0.3926,0.401,0.4029,0.4062,0.4073,0.4093,0.4012,0.4003,0.3995,0.3972,0.408,0.408,0.4173,0.4174,0.4174]},{"header":{"parameterUnit":"m.s-1","parameterCategory":1,"la1":30.2991,"la2":30.254,"lo1":-89.0895,"lo2":-89.0444,"dy":0.0017,"dx":0.0017,"nx":28,"ny":28,"refTime":"2024-03-05T09:00:00:Z","depth":0,"parameterNumber":3,"parameterNumberName":"V-component_of_WINDS"},"data":[0,0,0,0,0,0,0,0,0,0,0,0,0,0,0,0,0,0,0,0,0,0,0,0,0,0,0,0,0,0,0,0,0,0,0,0,0,0,0,0,0,0,0,0,0,0,0,0,0,0,0,0,0,0,0,0,0,0,-0.1168,-0.1167,0,-0.1035,-0.1033,-0.1032,-0.1086,-0.1089,-0.1093,-0.1096,-0.0954,-0.0948,-0.0941,0,0,0,0,0,0,0,0,0,0,0,0,0,-0.1469,-0.1464,-0.1169,-0.1167,-0.1165,-0.1035,-0.1033,-0.1031,-0.1086,-0.109,-0.1093,-0.1097,-0.0956,-0.0948,-0.094,0,0,0,0,0,0,0,0,0,0,0,0,0,-0.1337,-0.1462,-0.1169,-0.1177,-0.1176,-0.1035,-0.1033,-0.1031,-0.1085,-0.109,-0.1094,-0.1099,-0.0959,-0.0949,-0.0939,-0.0781,0,0,-0.0908,-0.0904,0,0,0,0,0,0,0,0,-0.1345,-0.1326,-0.1177,-0.1176,-0.1175,-0.1082,-0.1087,-0.0947,-0.1084,-0.1119,-0.1096,-0.1101,-0.0993,-0.098,-0.0944,-0.0775,-0.0769,-0.0907,-0.0901,-0.0897,-0.0894,0,0,0,0,0,0,0,-0.1354,-0.1332,-0.1116,-0.1175,-0.1174,-0.1186,-0.1173,-0.1061,-0.1031,-0.1117,-0.112,-0.1104,-0.0993,-0.0954,-0.0941,-0.0766,-0.0908,-0.0899,-0.0893,-0.0889,-0.0464,-0.0459,0,0,0,0,0,0,-0.1364,-0.134,-0.112,-0.1112,-0.1274,-0.1177,-0.1162,-0.1107,-0.1032,-0.1025,-0.11,-0.1107,-0.0969,-0.0953,-0.0937,-0.0749,-0.0897,-0.0888,-0.0882,-0.0469,-0.0462,-0.0457,0,0,0,0,0,0,-0.137,-0.1344,-0.1125,-0.1226,-0.12,-0.1167,-0.1105,-0.1102,-0.1063,-0.102,-0.1014,-0.1066,-0.0972,-0.0951,-0.082,-0.0745,-0.0883,-0.0874,-0.0475,-0.0467,-0.046,-0.0371,0,0,0,0,0,0,-0.1378,-0.1345,-0.1285,-0.1225,-0.1194,-0.1011,-0.11,-0.1096,-0.1046,-0.1054,-0.0986,-0.0979,-0.0974,-0.0835,-0.081,-0.0733,-0.0866,-0.0482,-0.0471,-0.0462,-0.038,-0.0361,-0.0344,0,0,0,0,0,-0.1389,-0.1264,-0.1282,-0.1255,-0.1118,-0.1007,-0.0989,-0.0987,-0.104,-0.0979,-0.0952,-0.0982,-0.0757,-0.0821,-0.0794,-0.0712,-0.0486,-0.0474,-0.0463,-0.0388,-0.0364,-0.0344,0,0,0,0,0,0,-0.1314,-0.1256,-0.1275,-0.1127,-0.1072,-0.1016,-0.094,-0.0961,-0.0889,-0.0899,-0.0898,-0.0882,-0.0748,-0.0717,-0.079,-0.0557,-0.063,-0.0612,-0.0582,-0.0559,-0.0542,-0.0552,-0.0858,0,0,0,0,0,-0.1281,-0.1196,-0.1149,-0.1023,-0.0995,-0.0972,-0.0923,-0.0927,-0.0869,-0.0845,-0.0808,-0.0749,-0.0666,-0.0611,-0.0531,-0.0376,-0.0363,-0.0307,-0.0289,-0.0274,-0.0259,-0.0177,-0.0152,-0.0418,-0.0418,-0.0418,0,0,-0.121,-0.1168,-0.1114,-0.1007,-0.0965,-0.0877,-0.0952,-0.0855,-0.079,-0.083,-0.0705,-0.0676,-0.0611,-0.0468,-0.0403,-0.0438,-0.0183,-0.0259,-0.0248,-0.024,-0.0162,-0.0137,-0.0115,-0.041,-0.0412,-0.0413,0,0,-0.1037,-0.0996,-0.0888,-0.0845,-0.078,-0.0767,-0.0741,-0.0682,-0.0665,-0.0541,-0.057,-0.0492,-0.0348,-0.0301,-0.0258,-0.0071,-0.0097,-0.0045,0.0049,0.0129,0.015,0.0169,0.0234,0.0257,-0.003,-0.003,-0.0029,0,-0.0957,-0.0827,-0.0829,-0.0731,-0.0684,-0.0718,-0.0609,-0.0566,-0.0479,-0.0445,-0.0486,-0.0308,-0.0266,-0.0114,-0.0069,-0.0033,-0.0004,-0.0053,0.0147,0.0166,0.0183,0.0245,0.027,-0.0024,-0.0025,-0.0025,-0.0026,0,-0.0732,-0.0642,-0.0562,-0.048,-0.0423,-0.0319,-0.0306,-0.0249,-0.0258,-0.024,-0.0114,-0.0065,0.0022,0.0058,0.0051,0.0208,0.0184,0.0146,0.0073,0.0214,0.0272,0.0296,-0.0016,-0.0018,-0.0019,-0.0021,0,0,-0.0506,-0.0429,-0.04,-0.0364,-0.0297,-0.0227,-0.0125,-0.0042,0.0006,0.0067,0.0152,0.0273,0.0236,0.0285,0.0283,0.0353,0.0496,0.0305,0.0307,0.0338,0.0669,0.0697,0.0725,0.0479,0.0483,0.0487,0.0663,0,-0.033,-0.0154,-0.0154,0.0008,0.0091,0.0058,0.0145,0.0196,0.0215,0.0289,0.031,0.0395,0.0341,0.037,0.0438,0.0464,0.0562,0.0451,0.0557,0.0561,0.0541,0.0756,0.0786,0.095,0.0686,0.069,0.0693,0,-0.0099,-0.0034,0.0136,0.0188,0.0223,0.0302,0.0376,0.0447,0.0503,0.0512,0.0564,0.0551,0.0653,0.0577,0.0718,0.0643,0.0686,0.0705,0.0711,0.0721,0.0635,0.077,0.1003,0.1027,0.0729,0.0726,0.0724,0,0.0046,0.0177,0.0295,0.0327,0.0391,0.0447,0.0477,0.0528,0.0577,0.0643,0.0674,0.0752,0.0794,0.0854,0.0862,0.0806,0.1003,0.0928,0.1012,0.1012,0.1055,0.1053,0.1297,0.1085,0.1085,0.1084,0.1084,0,0.0244,0.0349,0.0361,0.0433,0.0549,0.0548,0.0663,0.0688,0.0733,0.081,0.0787,0.0859,0.0865,0.094,0.0946,0.1061,0.1081,0.109,0.1091,0.1092,0.109,0.112,0.1108,0.1091,0.1089,0.1088,0.1087,0,0.0426,0.0439,0.0564,0.0613,0.0628,0.0711,0.0754,0.0823,0.0838,0.0935,0.0958,0.0983,0.1069,0.1082,0.1185,0.1189,0.1325,0.1315,0.1306,0.1304,0.1387,0.1379,0.1659,0.1695,0.146,0.1462,0.1464,0,0.0551,0.063,0.0687,0.0735,0.0767,0.0846,0.0895,0.0896,0.0948,0.1016,0.1076,0.116,0.1226,0.1366,0.1393,0.147,0.1461,0.1553,0.1472,0.147,0.146,0.1455,0.1462,0.1569,0.1572,0.1574,0.1575,0,0.077,0.0771,0.0842,0.0914,0.0973,0.103,0.1085,0.1126,0.1134,0.1193,0.128,0.1331,0.1433,0.1516,0.1592,0.1623,0.1601,0.16,0.1624,0.1626,0.1616,0.1621,0.1347,0.1594,0.1592,0.1591,0.159,0.1589,0.0927,0.0995,0.1044,0.1122,0.1162,0.1213,0.1279,0.1301,0.1373,0.1455,0.1451,0.1546,0.1598,0.1697,0.1733,0.1807,0.1777,0.1811,0.182,0.1828,0.1835,0.1605,0.1821,0.1821,0.182,0.182,0.1819,0,0.1143,0.1172,0.1245,0.1319,0.1381,0.1353,0.141,0.1464,0.1547,0.1596,0.1661,0.176,0.1839,0.1871,0.1949,0.2002,0.1994,0.2022,0.2018,0.2025,0.1859,0.183,0.2027,0.2027,0.2027,0.2027,0.2027,0.2027,0.1263,0.1376,0.1382,0.1514,0.1543,0.1634,0.1669,0.1715,0.1753,0.1864,0.1928,0.1948,0.1991,0.207,0.2141,0.2149,0.2178,0.2211,0.2214,0.2058,0.2037,0.2017,0.199,0.2218,0.2218,0.2374,0.2375,0.2376]}]]